Regional Weather Roundup
Issued by NWS Kansas City/Pleasant Hill, MO

Home | Current Version | Previous Version | Text Only | Print | Product List | Glossary On
Versions: 1 2 3 4 5 6 7 8 9 10 11 12 13 14 15 16 17 18 19 20 21 22 23 24 25 26 27 28 29 30 31 32 33 34 35 36 37 38 39 40 41 42 43 44 45 46 47 48 49 50
000
ASUS43 KEAX 300310
RWREAX

WEATHER ROUNDUP FOR EASTERN KANSAS AND NORTHWEST MISSOURI
NATIONAL WEATHER SERVICE KANSAS CITY/PLEASANT HILL MO
1000 PM CDT TUE JUL 29 2014

KSZ040-057-103>105-MOZ028-029-037-043-300400-
...KANSAS CITY METROPOLITAN AREA...

CITY           SKY/WX    TMP DP  RH WIND       PRES   REMARKS
K.C. INTL      PTCLDY    70  60  70 NE6       30.10R
K.C. DOWNTOWN  CLEAR     74  58  57 N5        30.08R
LEES SUMMIT    MOCLDY    74  58  57 NE5       30.10R
OLATHE - IXD   CLEAR     70  58  65 NE5       30.10R
OLATHE - OJC   PTCLDY    73  57  57 N3        30.09R
LAWRENCE       CLEAR     68  60  75 CALM      30.09R

$$

MOZ001>008-011>017-020>025-030>033-038>040-044>046-053-054-300400-
...NORTHERN AND CENTRAL MISSOURI...

CITY           SKY/WX    TMP DP  RH WIND       PRES   REMARKS
ST. JOSEPH     CLOUDY    69  61  75 N5        30.10R
MOSBY          MOCLDY    68  61  77 CALM      30.09R
WHITEMAN AFB   PTCLDY    69  49  50 S1        30.09R
CLINTON        CLEAR     70  63  78 CALM      30.09R
SEDALIA        PTCLDY    70  58  65 CALM      30.10R
WARSAW         NOT AVBL
MARSHALL       PTCLDY    70  63  78 CALM      30.11R
CHILLICOTHE      N/A     66  60  81 CALM      30.11R
MOBERLY        CLEAR     64  57  77 CALM      30.10R
KIRKSVILLE     CLEAR     61  58  90 CALM      30.10R

$$

MOZ041-047>049-056>058-063>065-088>090-097-300400-
...EASTERN AND SOUTHERN MISSOURI...

CITY           SKY/WX    TMP DP  RH WIND       PRES   REMARKS
ST. LOUIS INTL PTCLDY    72  56  57 CALM      30.09R
SPIRIT OF STL  CLEAR     64  58  80 CALM      30.08R
COLUMBIA       CLEAR     67  58  72 CALM      30.10R
JEFFERSON CITY PTCLDY    68  58  70 CALM      30.08R
MEXICO         CLEAR    N/A N/A N/A CALM      30.10R
HANNIBAL       CLEAR     63  55  77 CALM      30.09R
ROLLA          MOCLDY    65  55  70 CALM      30.09R
LEBANON        CLEAR     70  55  60 CALM      30.12R
OSAGE BEACH      N/A     66  57  72 CALM      30.10R
SPRINGFIELD    MOCLDY    71  59  65 CALM      30.10R
BRANSON          N/A     72  59  64 CALM      30.11S
NEVADA         PTCLDY    68  64  88 CALM      30.11R
JOPLIN         PTCLDY    69  60  73 NE3       30.10R
WEST PLAINS    PTCLDY    68  59  73 CALM      30.12R
MALDEN         CLEAR     68  59  73 S5        30.10R

$$

IAZ060-094-KSZ022-034>040-054-083-096-NEZ052-066-093-300400-
...KANSAS...SOUTHEAST NEBRASKA AND IOWA...

CITY           SKY/WX    TMP DP  RH WIND       PRES   REMARKS
TOPEKA         CLEAR     72  61  68 NE5       30.09R
MANHATTAN      PTCLDY    73  60  63 CALM      30.09R
EMPORIA        PTCLDY    68  59  73 SE5       30.10R
CHANUTE        MOCLDY    68  61  78 CALM      30.09R
WICHITA        MOCLDY    79  63  57 SE13      30.08R
OMAHA          MOCLDY    67  57  70 N3        30.13R
LINCOLN        MOCLDY    68  55  63 N5        30.14R
FALLS CITY     MOCLDY    69  59  70 N3        30.11R
LAMONI         MOCLDY    67  57  70 NW3       30.11R
DES MOINES     PTCLDY    68  55  63 W6        30.10R

$$



USA.gov is the U.S. government's official web portal to all federal, state and local government web resources and services.